TimeCST,TemperatureF,Dew PointF,Humidity,Sea Level PressureIn,VisibilityMPH,Wind Direction,Wind SpeedMPH,Gust SpeedMPH,PrecipitationIn,Events,Conditions,WindDirDegrees,DateUTC
12:15 AM,33.4,25.3,72,30.20,10.0,NE,5.8,-,N/A,,Overcast,40,2012-11-05 06:15:00
12:34 AM,33.3,25.7,74,30.20,10.0,NE,6.9,-,N/A,,Overcast,40,2012-11-05 06:34:00
12:55 AM,32.9,25.7,75,30.20,10.0,NE,5.8,-,N/A,,Overcast,40,2012-11-05 06:55:00
1:14 AM,32.9,25.7,75,30.21,10.0,NE,6.9,-,N/A,,Overcast,50,2012-11-05 07:14:00
1:35 AM,32.9,25.7,75,30.21,10.0,NE,6.9,-,N/A,,Overcast,50,2012-11-05 07:35:00
1:54 AM,32.5,25.9,76,30.21,10.0,NE,4.6,-,N/A,,Overcast,50,2012-11-05 07:54:00
2:15 AM,32.5,26.1,77,30.21,10.0,NE,6.9,-,N/A,,Overcast,50,2012-11-05 08:15:00
2:34 AM,32.5,26.1,77,30.21,10.0,NE,5.8,-,N/A,,Overcast,50,2012-11-05 08:34:00
2:54 AM,32.4,26.1,78,30.21,10.0,NE,5.8,-,N/A,,Overcast,40,2012-11-05 08:54:00
3:15 AM,32.2,26.1,78,30.21,10.0,NE,4.6,-,N/A,,Overcast,50,2012-11-05 09:15:00
3:34 AM,32.2,26.1,78,30.21,10.0,NNE,4.6,-,N/A,,Overcast,20,2012-11-05 09:34:00
3:54 AM,32.0,26.1,79,30.21,10.0,NE,5.8,-,N/A,,Overcast,50,2012-11-05 09:54:00
4:15 AM,32.0,26.1,79,30.20,10.0,NE,5.8,-,N/A,,Overcast,40,2012-11-05 10:15:00
4:34 AM,32.0,26.1,79,30.21,10.0,NE,4.6,-,N/A,,Overcast,50,2012-11-05 10:34:00
4:54 AM,32.0,25.9,78,30.21,10.0,NE,6.9,-,N/A,,Overcast,50,2012-11-05 10:54:00
5:14 AM,32.0,25.7,78,30.21,10.0,NE,5.8,-,N/A,,Overcast,50,2012-11-05 11:14:00
5:34 AM,31.8,25.7,78,30.21,10.0,NE,5.8,-,N/A,,Overcast,40,2012-11-05 11:34:00
5:55 AM,31.8,25.7,78,30.21,10.0,NE,5.8,-,N/A,,Overcast,40,2012-11-05 11:55:00
6:14 AM,31.6,25.5,78,30.21,10.0,NE,4.6,-,N/A,,Overcast,50,2012-11-05 12:14:00
6:34 AM,31.6,25.5,78,30.21,10.0,NE,5.8,-,N/A,,Overcast,40,2012-11-05 12:34:00
6:55 AM,31.3,25.3,79,30.20,10.0,NE,4.6,-,N/A,,Overcast,40,2012-11-05 12:55:00
7:14 AM,31.5,25.3,78,30.21,10.0,NE,5.8,-,N/A,,Overcast,40,2012-11-05 13:14:00
7:35 AM,31.1,25.2,79,30.21,10.0,ENE,5.8,-,N/A,,Overcast,60,2012-11-05 13:35:00
7:54 AM,31.1,25.2,79,30.21,10.0,NE,4.6,-,N/A,,Overcast,50,2012-11-05 13:54:00
8:14 AM,31.6,25.5,78,30.21,10.0,NE,3.5,-,N/A,,Overcast,50,2012-11-05 14:14:00
8:35 AM,32.0,25.3,76,30.21,10.0,ENE,3.5,-,N/A,,Overcast,60,2012-11-05 14:35:00
8:54 AM,32.0,25.2,76,30.21,10.0,ENE,3.5,-,N/A,,Overcast,60,2012-11-05 14:54:00
9:14 AM,32.2,25.5,76,30.21,10.0,Calm,Calm,-,N/A,,Overcast,0,2012-11-05 15:14:00
9:34 AM,32.9,25.5,74,30.21,10.0,Calm,Calm,-,N/A,,Overcast,0,2012-11-05 15:34:00
9:54 AM,33.1,25.5,74,30.21,10.0,Calm,Calm,-,N/A,,Overcast,0,2012-11-05 15:54:00
10:14 AM,33.8,25.5,72,30.21,10.0,Calm,Calm,-,N/A,,Overcast,0,2012-11-05 16:14:00
10:34 AM,34.3,25.7,71,30.21,10.0,Calm,Calm,-,N/A,,Overcast,0,2012-11-05 16:34:00
10:55 AM,35.1,26.1,70,30.21,10.0,Calm,Calm,-,N/A,,Overcast,0,2012-11-05 16:55:00
11:14 AM,35.6,26.2,69,30.20,10.0,Calm,Calm,-,N/A,,Overcast,0,2012-11-05 17:14:00
11:34 AM,36.1,26.2,67,30.19,10.0,Calm,Calm,-,N/A,,Overcast,0,2012-11-05 17:34:00
11:55 AM,37.6,27.1,66,30.19,10.0,Calm,Calm,-,N/A,,Overcast,0,2012-11-05 17:55:00
12:14 PM,37.8,27.1,66,30.18,10.0,Calm,Calm,-,N/A,,Overcast,0,2012-11-05 18:14:00
12:35 PM,38.5,27.5,65,30.17,10.0,Calm,Calm,-,N/A,,Overcast,0,2012-11-05 18:35:00
12:54 PM,39.2,27.7,63,30.15,10.0,Calm,Calm,-,N/A,,Overcast,0,2012-11-05 18:54:00
1:15 PM,39.6,28.0,63,30.15,10.0,Calm,Calm,-,N/A,,Overcast,0,2012-11-05 19:15:00
1:34 PM,40.1,28.4,63,30.14,10.0,SSE,3.5,-,N/A,,Overcast,160,2012-11-05 19:34:00
1:54 PM,40.3,28.8,63,30.14,10.0,South,3.5,-,N/A,,Overcast,170,2012-11-05 19:54:00
2:15 PM,40.3,28.9,64,30.13,10.0,SSE,3.5,-,N/A,,Overcast,160,2012-11-05 20:15:00
2:34 PM,40.8,29.3,64,30.12,10.0,SE,4.6,-,N/A,,Overcast,130,2012-11-05 20:34:00
2:55 PM,41.0,29.7,64,30.10,10.0,SSE,4.6,-,N/A,,Overcast,150,2012-11-05 20:55:00
3:14 PM,41.2,30.0,65,30.10,10.0,SSE,5.8,-,N/A,,Overcast,160,2012-11-05 21:14:00
3:35 PM,41.0,30.2,65,30.10,10.0,SSE,6.9,-,N/A,,Overcast,150,2012-11-05 21:35:00
3:54 PM,41.0,30.4,66,30.10,10.0,SSE,5.8,-,N/A,,Overcast,160,2012-11-05 21:54:00
4:15 PM,40.5,30.6,68,30.10,10.0,South,4.6,-,N/A,,Overcast,170,2012-11-05 22:15:00
4:34 PM,40.3,30.7,69,30.09,10.0,South,4.6,-,N/A,,Overcast,170,2012-11-05 22:34:00
4:54 PM,40.1,30.9,70,30.09,10.0,SSE,4.6,-,N/A,,Overcast,160,2012-11-05 22:54:00
5:14 PM,39.7,30.9,71,30.08,10.0,SSE,5.8,-,N/A,,Overcast,150,2012-11-05 23:14:00
5:34 PM,39.7,30.9,71,30.08,10.0,SSE,5.8,-,N/A,,Overcast,160,2012-11-05 23:34:00
5:54 PM,39.7,31.1,71,30.07,10.0,SSE,4.6,-,N/A,,Overcast,160,2012-11-05 23:54:00
6:14 PM,39.7,31.1,71,30.06,10.0,SSE,5.8,-,N/A,,Overcast,160,2012-11-06 00:14:00
6:34 PM,39.7,31.3,72,30.06,10.0,SSE,8.1,-,N/A,,Overcast,160,2012-11-06 00:34:00
6:54 PM,39.7,31.5,72,30.04,10.0,SSE,9.2,-,N/A,,Overcast,160,2012-11-06 00:54:00
7:14 PM,39.7,31.6,73,30.04,10.0,SSE,6.9,-,N/A,,Overcast,160,2012-11-06 01:14:00
7:35 PM,40.1,31.8,72,30.03,10.0,South,6.9,-,N/A,,Overcast,170,2012-11-06 01:35:00
7:54 PM,40.1,32.0,73,30.03,10.0,South,8.1,-,N/A,,Overcast,170,2012-11-06 01:54:00
8:14 PM,40.1,32.0,73,30.02,10.0,SSE,6.9,-,N/A,,Overcast,160,2012-11-06 02:14:00
8:35 PM,40.1,32.0,73,30.01,10.0,SSE,8.1,-,N/A,,Overcast,160,2012-11-06 02:35:00
8:54 PM,40.1,32.0,73,30.00,10.0,SSE,8.1,-,N/A,,Overcast,160,2012-11-06 02:54:00
9:14 PM,40.3,32.2,73,29.99,10.0,South,8.1,-,N/A,,Overcast,170,2012-11-06 03:14:00
9:34 PM,40.5,32.5,73,29.98,10.0,South,8.1,-,N/A,,Overcast,170,2012-11-06 03:34:00
9:54 PM,41.0,33.1,73,29.97,10.0,South,8.1,-,N/A,,Overcast,180,2012-11-06 03:54:00
10:14 PM,41.0,33.4,74,29.96,10.0,South,9.2,-,N/A,,Overcast,170,2012-11-06 04:14:00
10:34 PM,41.0,34.2,77,29.94,10.0,South,9.2,18.4,N/A,,Overcast,170,2012-11-06 04:34:00
10:54 PM,41.0,34.2,77,29.94,10.0,South,10.4,-,N/A,,Overcast,170,2012-11-06 04:54:00
11:14 PM,41.0,34.7,78,29.93,10.0,South,9.2,16.1,N/A,,Overcast,180,2012-11-06 05:14:00
11:34 PM,39.9,35.8,85,29.92,10.0,South,8.1,-,N/A,,Overcast,180,2012-11-06 05:34:00
11:54 PM,39.9,36.3,87,29.91,10.0,South,6.9,-,N/A,,Overcast,180,2012-11-06 05:54:00